Location: Castellar de la Frontera
(36.3200°N, 5.4500°W)
Time: 15:26:10
(UTC+02:00)

ISS - Pass Details

Date: 18 July 2018
Orbit: 402 x 408 km, 51.6° (Epoch: 21 July)

Event Time Altitude Azimuth Distance (km) Brightness Sun altitude
Rises 23:48:05 0° 235° (SW) 2,303 0.1 -21.4°
Reaches altitude 10° 23:50:10 10° 239° (WSW) 1,449 -0.9 -21.7°
Enters shadow 23:50:42 14° 240° (WSW) 1,237 -1.3 -21.8°
Exits shadow 23:58:14 - 46° (NE) 2,112 -0.1 -22.7°
Sets 23:58:45 0° 46° (NE) 2,324 0.1 -22.8°
